Location: Cella
(44.7333°N, 10.5667°E)
Time: 01:19:42
(UTC+00:00)

YAOGAN 1 - Pass Details

Date: 03 March 2021
Orbit: 618 x 620 km, 97.9° (Epoch: 20 April)

Event Time Altitude Azimuth Distance (km) Brightness Sun altitude
Rises 17:36:40 0° 153° (SSE) 2,884 5.8 -5.9°
Reaches altitude 10° 17:38:52 10° 149° (SSE) 1,983 4.9 -6.2°
Maximum altitude 17:43:04 54° 73° (ENE) 756 2.7 -7.0°
Drops below altitude 10° 17:47:19 10° 356° (N) 1,999 5.2 -7.7°
Sets 17:49:33 0° 352° (N) 2,909 6.1 -8.1°
